New Philadelphia, OH

9:13 PM EST on February 06, 2016 (GMT -0500)
Clever

Weather History for KPHD - April, 2014

Change the Weather History Date:

Monday, April 14, 2014

  Actual Average Record
Temperature  
Mean Temperature 64 °F 51 °F  
Max Temperature 74 °F 63 °F 82 °F (1968)
Min Temperature 53 °F 38 °F 21 °F (1973)
Degree Days  
Heating Degree Days 1 15  
Month to date heating degree days 183 236  
Since 1 July heating degree days 5779 5222  
Cooling Degree Days 0 0  
Month to date cooling degree days 1 0  
Year to date cooling degree days 1 1  
Growing Degree Days 15 (Base 50)    
Moisture  
Dew Point 53 °F    
Average Humidity 63    
Maximum Humidity 93    
Minimum Humidity 33    
Precipitation  
Precipitation 0.12 in 0.11 in 1.16 in (2002)
Month to date precipitation 2.39 1.57  
Year to date precipitation 8.09 9.57  
Sea Level Pressure  
Sea Level Pressure 29.70 in    
Wind  
Wind Speed 10 mph (SSW)    
Max Wind Speed 22 mph    
Max Gust Speed 34 mph    
Visibility 10 miles    
Events Rain    
T = Trace of Precipitation, MM = Missing Value Source: NWS Daily Summary

Daily Weather History Graph

Daily Weather History Graph

Search for Another Location

Airport or City:

Trip Planner

Search our weather history database for the weather conditions in past years. The results will help you decide how hot, cold, wet, or windy it might be!

Date:

Astronomy

Apr. 14, 2014 Rise Set
Actual Time 6:48 AM EDT 8:03 PM EDT
Civil Twilight 6:20 AM EDT 8:32 PM EDT
Nautical Twilight 5:46 AM EDT 9:05 PM EDT
Astronomical Twilight 5:11 AM EDT 9:41 PM EDT
Moon 7:41 PM EDT (4/14) 6:20 AM EDT (4/14)
Length of Visible Light 14h 11m
Length of Day
13h 14m
Full, 100% of the Moon is Illuminated
Apr 14
Full
Apr 15
Full
Apr 22
Last Quarter
Apr 29
New
May 6
First Quarter

Hourly Weather History & Observations

Time (EDT) Temp. Dew Point Humidity Pressure Visibility Wind Dir Wind Speed Gust Speed Precip Events Conditions
12:53 AM 73.9 °F 43.0 °F 33% 29.76 in 10.0 mi South 8.1 mph - N/A   Clear
1:53 AM 73.0 °F 43.0 °F 34% 29.76 in 10.0 mi South 10.4 mph - N/A   Clear
2:53 AM 72.0 °F 44.1 °F 37% 29.74 in 10.0 mi South 6.9 mph - N/A   Clear
3:53 AM 71.1 °F 48.0 °F 44% 29.73 in 10.0 mi South 6.9 mph - N/A   Clear
5:53 AM 70.0 °F 48.9 °F 47% 29.70 in 10.0 mi South 10.4 mph - N/A   Clear
6:53 AM 71.1 °F 48.9 °F 45% 29.68 in 10.0 mi South 15.0 mph 21.9 mph N/A   Clear
9:53 AM 73.0 °F 48.9 °F 42% 29.68 in 10.0 mi South 18.4 mph 28.8 mph N/A   Partly Cloudy
10:53 AM 73.0 °F 48.9 °F 42% 29.69 in 10.0 mi South 18.4 mph 25.3 mph N/A   Overcast
11:53 AM 69.1 °F 52.0 °F 54% 29.70 in 9.0 mi WSW 9.2 mph 24.2 mph 0.01 in Rain Light Rain
12:53 PM 66.0 °F 54.0 °F 65% 29.72 in 10.0 mi SSW 17.3 mph 27.6 mph 0.02 in Rain Light Rain
2:44 PM 64.9 °F 57.9 °F 78% 29.73 in 10.0 mi South 12.7 mph 25.3 mph 0.02 in   Mostly Cloudy
2:53 PM 64.9 °F 57.9 °F 78% 29.72 in 10.0 mi SSW 11.5 mph 24.2 mph 0.02 in   Mostly Cloudy
3:53 PM 64.0 °F 55.9 °F 75% 29.71 in 10.0 mi South 11.5 mph 23.0 mph N/A   Overcast
4:42 PM 64.0 °F 55.9 °F 75% 29.72 in 10.0 mi SW 13.8 mph 26.5 mph N/A   Overcast
4:53 PM 64.0 °F 55.9 °F 75% 29.72 in 10.0 mi SW 13.8 mph 19.6 mph N/A   Overcast
5:53 PM 64.9 °F 55.9 °F 73% 29.69 in 10.0 mi South 11.5 mph 19.6 mph N/A   Overcast
6:53 PM 64.9 °F 55.9 °F 73% 29.68 in 9.0 mi SSW 6.9 mph - 0.00 in Rain Light Rain
7:53 PM 64.0 °F 55.9 °F 75% 29.67 in 10.0 mi SSW 3.5 mph - 0.00 in   Overcast
8:53 PM 62.1 °F 57.0 °F 84% 29.67 in 10.0 mi SE 3.5 mph - 0.04 in   Overcast
9:53 PM 60.1 °F 57.0 °F 90% 29.67 in 10.0 mi Calm Calm - 0.00 in   Overcast
10:53 PM 60.1 °F 57.0 °F 90% 29.66 in 10.0 mi WNW 3.5 mph - N/A   Overcast
11:31 PM 60.1 °F 57.0 °F 90% 29.63 in 9.0 mi NW 5.8 mph - 0.00 in   Overcast
11:46 PM 57.9 °F 55.0 °F 90% 29.63 in 8.0 mi WNW 5.8 mph - 0.00 in   Overcast
11:53 PM 57.0 °F 55.0 °F 93% 29.63 in 7.0 mi NW 6.9 mph - 0.00 in   Overcast